RH
23 31 34 31 30 33 27 21 20 22 22 16 25 29 28 26 26 27 36 33 32 27 28 23 22 23 24 35 31 31 40 37 30 32 36 36 36 33 30 30 31 31 31 31 31
22 22 34 30 29 32 26 19 19 18 16 23 29 32 35 30 25 29 34 29 24 27 27 29 32 25 33 34 37 39 45 35 30 34 44 39 38 36 33 33 32 30 30 31 30
24 20 31 32 30 32 25 18 17 17 23 30 34 36 34 38 24 26 26 26 27 25 24 27 24 25 33 33 35 31 37 32 32 34 34 37 36 35 37 37 37 36 31 30 31
30 31 32 32 28 32 25 18 18 22 28 30 29 29 24 25 31 23 23 23 23 23 22 22 27 28 34 31 29 34 34 33 38 34 32 36 31 38 36 37 28 27 29 30 32
33 34 34 32 29 32 25 17 18 22 25 30 29 25 21 28 26 19 22 21 21 23 24 26 29 28 31 28 30 32 34 33 33 34 35 33 37 35 34 29 26 29 33 34 35
36 37 35 31 30 31 25 24 24 28 28 27 22 18 20 28 21 18 19 21 22 22 24 24 26 27 30 31 34 33 34 34 32 32 32 36 37 32 31 27 30 31 34 37 39
38 34 31 29 30 27 25 27 27 27 26 22 20 21 24 24 22 18 20 22 22 22 24 23 24 25 28 32 27 29 32 29 34 33 34 33 43 39 30 27 32 34 36 39 41
36 33 31 30 28 24 21 23 25 24 24 23 20 20 25 20 18 17 19 20 22 22 23 22 21 28 29 29 29 28 34 35 35 35 35 34 59 35 29 30 36 37 38 39 42
35 31 28 27 24 22 23 24 27 27 29 25 20 21 26 20 19 19 20 20 21 20 19 17 20 30 30 29 32 36 39 39 39 37 36 37 47 35 33 34 38 39 41 40 42
34 32 31 26 24 24 27 28 24 23 22 23 21 16 20 27 22 21 20 21 23 22 21 28 34 32 34 29 26 33 38 38 44 40 38 43 44 38 37 39 44 42 41 42 44
36 34 33 32 31 29 27 28 22 28 25 32 29 27 28 22 21 23 23 20 24 30 31 32 31 41 36 36 30 33 34 40 45 40 41 43 44 43 41 42 42 43 44 42 45
37 34 34 33 34 32 30 26 28 25 30 27 25 24 25 22 24 24 21 22 27 30 28 30 38 35 36 36 32 31 34 46 47 42 38 43 47 42 41 45 45 45 44 46 45
35 35 35 31 26 27 30 39 29 26 30 24 27 25 23 22 32 32 28 29 30 34 36 35 31 31 29 39 32 33 31 39 34 41 38 42 49 44 40 42 43 45 47 45 48
32 33 34 28 26 32 37 37 37 26 30 30 26 25 23 25 30 29 30 27 32 33 33 35 32 31 34 36 36 29 35 35 49 48 47 43 51 48 44 45 44 45 46 47 49
29 30 34 30 28 29 35 38 39 19 27 27 28 21 24 32 32 28 31 29 34 35 30 33 35 37 37 35 34 28 36 38 47 46 50 51 59 61 44 46 42 43 46 48 50
29 32 34 32 31 36 36 35 22 23 33 26 28 32 28 35 40 41 42 36 33 34 36 37 33 36 36 33 32 34 29 32 42 47 48 52 53 58 51 45 45 44 45 49 51
31 36 34 32 42 36 34 25 30 34 29 29 32 33 39 41 42 50 54 59 54 30 46 39 38 39 37 35 35 38 25 24 21 24 26 48 46 51 47 43 43 47 45 46 54
29 31 38 40 46 38 27 28 29 34 36 34 32 35 41 43 49 53 53 60 57 54 58 46 32 44 40 35 39 42 29 23 21 22 26 45 46 46 42 42 43 43 45 51 64
31 36 47 56 49 34 36 42 35 37 34 34 32 36 41 41 42 53 64 64 60 61 45 50 39 38 38 34 33 34 45 41 38 44 44 47 44 39 38 39 42 44 48 59 70
31 34 43 47 40 29 50 56 48 46 41 33 33 38 40 47 42 51 53 57 57 55 54 55 41 42 36 32 34 32 35 20 29 23 22 30 57 49 42 44 47 47 50 69 72
31 52 46 45 32 51 45 50 48 46 41 36 38 44 46 44 50 57 58 58 55 54 41 47 51 34 34 46 45 40 32 38 32 45 30 42 30 41 41 44 48 49 52 77 75
37 51 51 42 53 81 59 48 44 44 43 43 43 42 44 46 55 59 55 58 49 50 41 42 51 45 43 37 30 32 32 27 24 22 50 54 38 37 39 37 46 52 60 76 74
62 67 43 38 44 73 61 58 55 44 51 43 46 43 44 52 51 62 62 53 38 32 33 35 40 34 28 33 26 29 30 35 37 40 40 38 30 40 38 45 48 55 69 77 72
56 52 56 70 68 63 59 55 54 48 48 49 49 43 47 50 60 68 65 57 38 46 44 39 45 33 28 26 32 39 33 34 36 42 40 42 40 31 37 51 52 60 77 72 72
67 51 57 53 54 58 54 53 53 49 47 45 48 45 46 52 50 58 65 53 37 38 39 33 37 38 38 37 37 38 37 39 40 39 38 36 40 35 45 54 57 70 74 69 74
62 63 72 68 57 52 54 48 50 57 48 46 49 47 44 49 44 51 61 52 44 35 39 45 35 41 37 41 39 40 39 40 40 36 41 38 40 39 47 58 65 81 77 79 77
60 54 58 72 60 47 54 56 51 53 49 52 50 48 44 42 42 44 47 50 40 39 44 44 42 30 29 39 37 38 44 39 36 35 34 42 37 51 53 57 76 88 83 84 71
Wind_Speed
4 3 5 6 6 6 8 9 10 12 14 15 15 16 17 18 18 13 9 7 7 9 10 5 9 8 7 4 6 2 5 3 3 3 5 8 10 17 14 23 27 12 14 11 19
4 3 4 5 4 7 9 10 12 15 16 16 16 12 8 6 13 20 12 11 8 9 8 10 6 8 4 5 4 5 4 5 5 6 12 16 10 8 9 17 17 19 21 20 23
5 3 2 3 4 8 11 11 15 17 16 13 9 4 3 2 5 6 14 10 9 10 8 6 5 4 6 4 5 4 4 5 13 20 17 20 27 4 5 16 12 15 16 25 30
5 3 2 1 8 11 13 13 16 15 13 9 6 6 8 3 5 8 11 8 9 9 8 10 6 5 5 5 4 7 14 7 1 6 11 11 12 25 22 12 12 17 18 22 27
6 4 4 7 12 14 14 14 15 13 9 7 6 6 5 7 3 9 8 8 7 7 13 4 6 3 5 4 4 7 8 16 19 24 24 23 23 18 19 14 16 19 23 25 25
7 5 5 12 15 15 15 14 13 10 7 7 12 14 7 12 4 11 5 8 11 9 9 8 3 3 6 4 5 7 19 14 13 19 11 19 16 7 13 10 16 17 19 23 25
8 9 12 16 17 17 16 14 11 9 13 13 9 8 12 3 7 6 6 8 8 8 4 6 3 4 4 7 5 11 16 10 8 5 12 12 21 12 8 11 18 16 14 19 22
9 12 13 16 17 17 16 16 15 11 9 7 7 8 5 9 13 15 8 8 8 10 8 7 8 7 5 5 5 2 3 4 6 8 6 6 5 8 9 14 15 15 13 14 19
11 13 14 17 18 19 17 13 11 9 5 4 5 5 3 6 9 14 10 5 6 11 13 10 8 5 5 4 3 6 3 3 3 19 2 9 10 5 7 12 14 13 12 13 14
12 14 16 18 18 16 14 14 13 6 4 4 7 5 8 5 7 8 6 7 7 3 6 10 6 4 4 5 2 1 2 3 5 6 20 20 14 6 6 11 10 11 13 14 14
12 13 14 16 17 17 10 1 5 7 14 4 1 4 4 8 3 16 13 3 6 9 5 6 10 4 3 3 1 3 3 5 3 6 7 13 13 7 5 9 12 12 13 16 15
12 14 14 14 10 6 4 6 6 7 5 8 4 3 4 3 7 23 16 7 8 4 3 6 6 3 3 4 4 4 5 3 5 7 7 9 8 4 3 5 6 9 11 13 16
12 14 13 9 6 7 10 10 9 4 6 4 3 4 4 7 5 10 9 3 6 8 7 6 2 3 3 6 3 1 4 3 1 8 9 11 3 3 1 0 3 4 5 8 12
11 12 9 6 4 7 6 7 3 2 5 10 6 6 6 1 6 8 9 3 7 3 3 5 4 3 5 5 2 1 3 2 12 6 3 6 2 4 4 2 3 6 8 10 12
9 10 8 4 7 4 7 4 2 2 4 7 6 4 6 8 3 11 11 7 5 3 3 0 5 6 6 2 1 3 1 3 4 5 3 6 3 2 2 2 7 6 7 8 10
9 10 9 5 4 6 7 2 2 5 2 3 4 6 5 8 5 7 8 10 2 5 6 2 2 3 2 2 2 5 3 4 3 2 2 3 4 5 4 2 4 5 8 8 10
9 9 7 5 4 8 3 3 5 6 3 4 3 4 4 7 6 8 6 9 5 3 6 6 3 5 4 4 5 8 4 3 3 2 3 2 2 2 6 5 4 6 9 9 9
9 8 9 8 8 7 2 5 6 2 1 1 1 3 5 5 4 6 3 5 6 5 3 4 3 5 7 2 2 4 3 3 4 3 4 2 4 1 5 3 4 7 8 8 9
11 12 6 7 5 3 5 5 4 4 2 5 3 4 4 2 3 4 4 2 2 5 3 2 1 2 3 3 1 1 5 1 1 1 0 2 1 0 1 4 7 9 9 7 9
5 6 5 4 3 3 5 4 2 1 0 1 3 1 2 4 2 4 2 2 3 3 1 2 2 1 3 1 5 5 3 2 3 5 6 2 3 1 1 5 8 11 11 6 8
3 4 4 3 3 6 4 3 3 1 0 3 3 3 2 2 3 2 1 1 1 4 4 2 2 2 1 4 1 3 2 5 3 1 2 5 2 5 2 3 8 10 9 6 8
4 3 4 2 4 2 3 4 2 2 4 2 4 3 2 2 3 2 2 1 1 1 2 1 3 3 2 0 1 2 3 3 3 2 0 1 4 6 2 5 6 10 6 7 7
3 2 5 2 4 2 1 3 3 2 3 2 3 2 2 3 2 2 2 1 2 2 3 2 1 3 2 1 2 2 1 4 4 2 5 3 2 4 3 6 7 10 8 8 7
3 3 4 4 1 7 6 3 3 2 3 4 3 2 3 2 4 5 3 1 1 2 5 2 2 4 5 2 1 3 3 4 4 3 3 5 4 3 8 10 11 8 5 8 10
3 1 1 2 1 5 4 4 4 3 2 2 3 2 4 3 1 2 2 1 2 2 3 2 2 1 4 2 2 3 5 6 7 3 6 2 3 7 5 8 8 4 7 11 12
4 4 3 2 3 5 2 3 4 3 1 0 5 1 1 4 3 6 5 4 2 2 2 2 1 1 4 1 3 5 7 5 4 3 6 4 6 4 5 5 6 7 8 10 12
3 4 4 3 1 3 3 5 5 7 2 3 5 4 3 2 3 3 4 5 4 5 2 2 2 2 4 3 5 5 6 7 3 4 4 4 4 1 6 9 8 5 6 9 11
Wind_Direction
34 57 69 59 77 100 113 102 109 118 119 117 110 101 90 83 74 65 41 356 1 20 27 49 32 38 47 57 45 104 64 65 49 65 82 5 86 60 64 69 60 67 62 25 16
18 55 69 46 95 101 99 97 112 120 120 119 117 109 85 79 64 53 22 26 37 29 26 36 16 19 43 30 27 62 72 53 8 92 90 63 72 88 70 52 49 50 42 34 31
19 58 83 14 118 123 116 113 121 122 123 126 124 93 11 30 60 6 11 21 31 23 25 37 38 53 55 36 359 40 63 91 74 116 102 90 62 51 95 50 39 38 29 30 34
30 49 0 106 138 134 126 123 128 127 123 119 94 70 52 67 75 345 359 12 23 27 44 38 35 54 67 62 352 89 35 77 144 96 92 83 87 69 61 68 48 48 47 44 39
23 29 87 124 136 136 132 129 131 127 118 98 69 56 55 52 52 4 20 35 38 53 47 62 49 82 73 79 74 104 98 64 89 83 84 90 73 76 56 44 48 52 46 42 39
45 53 102 132 137 136 139 136 129 121 111 97 85 79 87 70 359 3 39 63 49 55 45 45 80 83 83 62 60 94 111 112 81 83 89 86 57 72 36 42 51 42 42 40 39
63 85 115 130 132 136 139 132 126 116 115 106 92 77 59 37 358 12 86 65 55 62 78 55 88 92 137 90 105 132 107 95 25 138 146 96 50 69 35 49 51 39 37 38 36
88 103 119 125 129 131 127 121 118 113 108 76 69 68 98 38 49 57 94 71 72 61 81 60 85 92 50 100 50 85 67 92 33 331 20 118 89 48 29 59 50 36 30 31 30
107 107 113 119 122 121 117 113 109 106 79 57 49 81 24 3 20 25 48 79 71 77 55 61 67 84 36 89 50 21 105 76 115 11 89 69 124 77 32 61 52 35 25 24 21
117 114 113 115 118 120 114 109 91 75 31 40 37 47 8 324 353 353 30 60 73 41 27 33 48 67 35 41 184 7 84 61 66 50 75 93 122 117 57 63 51 36 27 23 16
125 122 117 117 115 120 120 34 36 7 32 64 125 106 356 339 26 16 3 20 31 49 57 17 63 44 5 336 314 109 89 108 124 132 80 113 123 117 79 61 47 34 24 20 13
130 127 119 121 107 97 62 80 128 149 77 26 47 54 48 15 23 355 19 65 42 68 346 40 54 334 267 356 124 138 131 88 77 107 84 134 119 120 77 57 44 29 22 12 3
136 133 123 115 99 69 94 111 114 122 90 7 8 34 350 42 58 335 16 77 74 57 38 91 322 344 128 28 58 58 119 173 215 97 68 133 144 190 118 124 9 15 1 5 358
137 144 133 107 94 111 90 116 103 107 79 334 347 8 359 86 53 15 11 97 41 113 72 77 346 38 51 59 47 354 61 254 142 155 232 203 276 204 185 25 328 356 359 358 359
132 152 160 91 126 112 144 113 84 101 61 326 332 333 19 75 311 358 13 26 79 42 100 14 15 16 46 328 359 258 344 137 136 161 135 196 275 106 176 315 335 330 344 350 358
124 144 160 138 97 132 144 80 77 46 89 356 348 353 37 19 20 315 18 36 102 82 43 72 296 59 299 298 320 292 96 54 66 129 232 167 196 174 181 197 290 307 320 340 358
125 135 152 138 135 149 148 50 41 83 318 338 0 25 91 9 21 29 39 31 42 48 18 352 10 326 33 5 360 18 45 351 359 352 264 61 211 39 172 226 256 311 325 333 357
119 137 98 106 132 145 104 53 76 189 191 154 68 59 75 7 25 15 65 35 26 33 75 44 323 10 335 78 264 16 66 111 301 291 305 330 247 104 203 249 315 317 315 328 345
116 97 79 71 123 134 74 59 175 202 166 141 90 78 16 358 104 76 51 40 332 6 79 54 267 341 48 18 48 21 49 197 234 85 273 267 224 31 222 326 335 321 313 334 349
129 93 46 56 95 71 74 141 141 221 303 21 105 34 124 339 49 57 33 301 322 40 224 205 4 15 296 287 44 96 144 10 20 342 306 272 276 136 257 322 320 332 321 343 341
119 68 12 51 58 49 107 139 139 18 5 56 136 108 105 123 79 71 138 245 23 336 47 97 93 263 349 24 257 4 61 59 118 135 256 305 286 154 170 325 317 313 320 343 346
96 74 354 34 54 48 94 132 156 128 31 64 92 98 107 108 85 115 174 97 8 213 75 318 137 269 268 4 273 98 127 116 124 241 177 21 283 154 114 312 290 316 332 348 353
94 125 29 50 128 89 177 71 72 98 37 74 89 69 65 101 97 139 148 147 18 89 148 169 28 336 311 16 1 68 121 95 87 84 213 166 274 192 308 310 338 335 357 343 358
102 88 352 51 30 127 137 124 103 32 82 73 115 92 107 92 19 163 151 181 44 97 75 92 131 192 215 237 137 262 187 166 150 166 185 233 297 289 330 333 326 344 336 339 356
32 175 207 169 322 106 98 126 127 122 54 49 63 84 147 125 103 159 141 169 89 31 57 90 232 228 273 206 204 243 226 190 201 184 201 173 270 289 296 312 313 337 344 354 345
130 132 40 69 79 100 62 153 137 132 57 108 131 143 59 160 187 202 149 199 171 61 86 359 255 36 276 200 301 265 244 228 212 217 263 282 294 208 299 309 324 -0 360 351 342
132 111 100 320 65 98 166 162 153 127 44 48 140 112 86 106 109 82 75 83 108 141 132 78 119 54 272 332 311 283 218 190 177 202 182 236 236 315 313 329 337 2 5 347 341